Regional Weather Roundup
Issued by NWS

Home | Current Version | Previous Version | Graphics & Text | Print | Product List | Glossary On
Versions: 1 2 3 4 5 6 7 8 9 10 11 12 13 14 15 16 17 18 19 20 21 22 23 24 25 26 27 28 29 30 31 32 33 34 35 36 37 38 39 40 41 42 43 44 45 46 47 48 49
000
ASUS45 KBOU 211110
RWRCO

WEATHER ROUNDUP FOR COLORADO
NATIONAL WEATHER SERVICE PUEBLO CO
400 AM MST WED FEB 21 2018

NOTE: "FAIR" INDICATES FEW OR NO CLOUDS BELOW 12000 FEET WITH NO
SIGNIFICANT WEATHER AND/OR OBSTRUCTIONS TO VISIBILITY.

COZ001>005-013-030-031-211200-
...NORTHWEST COLORADO...

CITY           SKY/WX    TMP DP  RH WIND       PRES   REMARKS
CRAIG          CLEAR    -16 -22  74 CALM      30.12S
HAYDEN         CLEAR     -1  -8  72 E12       30.10S WCI -18
MEEKER         CLEAR     -8 -14  74 CALM      30.10S
RABBIT EARS PA NOT AVBL
STEAMBOAT SPGS FAIR      -6  -9  86 CALM      30.08S
WALDEN         FAIR      -8 -15  71 SE7       30.02S WCI -22
$$

COZ006>008-011-211200-
...WEST CENTRAL VALLEYS...

CITY           SKY/WX    TMP DP  RH WIND       PRES   REMARKS
GRAND JUNCTION   N/A    N/A N/A N/A MISG      30.15R
MONTROSE       PTCLDY     6   2  83 S6        30.17R WCI  -4
EAGLE          PTCLDY     4  -1  80 SE3       30.14S
RIFLE          PTCLDY     6   0  76 CALM      30.16R
DELTA          NOT AVBL
NUCLA          FAIR      12   5  73 SE3       30.16S
$$

COZ017>023-064>068-211200-
...SOUTHWEST COLORADO...

CITY           SKY/WX    TMP DP  RH WIND       PRES   REMARKS
DURANGO        CLEAR      8   5  87 CALM      30.11S
CORTEZ         CLEAR     10   5  80 E6        30.11S WCI   0
PAGOSA SPRINGS FAIR       2   0  88 CALM      30.09S
TELLURIDE      PTCLDY     8  -8  48 CALM      30.02S
WOLF CREEK PAS   N/A     -4  -6  92 S15G21    29.97S WCI -25
$$

COZ009-010-012-014-032>034-037-058>063-211200-
...CENTRAL COLORADO...

CITY           SKY/WX    TMP DP  RH WIND       PRES   REMARKS
ASPEN          CLEAR     -5 -10  79 S5        30.03S WCI -16
BUENA VISTA    FAIR       0  -8  67 NW5       30.05S WCI -10
COPPER MTN     PTCLDY     0 -11  60 S13       29.84S WCI -18
BERTHOUD PASS  FAIR      -9 -18  64 NW15      29.78F WCI -31
COTTONWOOD PAS PTCLDY    12  -6  44 W8        29.96R WCI   1
GUNNISON       CLEAR     -3  -7  82 CALM      30.12R
KREMMLING      CLOUDY     1  -4  78 CALM      30.09F
LEADVILLE      PTCLDY   -14 -19  79 NE8       29.94S WCI -31
MONARCH PASS   PTCLDY    -4  -8  84 SW28G38   29.97R WCI -30
SALIDA         FAIR       9   5  84 N5        30.14S WCI   0
SUNLIGHT       CLEAR     -4  -8  84 SW10G17   29.95S WCI -21
WILKERSON PASS PTCLDY     0  -8  71 SW13G21   29.89R WCI -18
$$

COZ069>075-211200-
...SAN LUIS VALLEY/SANGRE DE CRISTO MOUNTAINS...

CITY           SKY/WX    TMP DP  RH WIND       PRES   REMARKS
ALAMOSA        PTCLDY     1  -3  83 E6        30.09S WCI -10
DEL NORTE      FAIR       2  -7  66 W16       30.08F WCI -18
LA VETA PASS   CLEAR      9   3  78 S17G31    30.06R WCI -10
SAGUACHE       PTCLDY     1  -6  71 N12       30.09S WCI -15
$$

COZ035-036-038>040-211200-
...NORTHERN COLORADO FRONT RANGE...

CITY           SKY/WX    TMP DP  RH WIND       PRES   REMARKS
DENVER INTL AP MOCLDY    -4  -8  83 NW6       30.14F WCI -16
DMNS CITY PARK NOT AVBL
AURORA         PTCLDY    -2  -6  84 E5        30.14F WCI -12
FRONT RANGE AP FAIR       2  -1  84 W7        30.14F WCI -10
ERIE MUNI ARPT FAIR      -8 -12  80 S3        30.24S
BOULDER MUN AP FAIR       3   0  85 CALM      30.16F
CENTENNIAL     PTCLDY     3   1  91 NW3       30.11F
BROOMFIELD     CLEAR      5   1  85 N6        30.14F WCI  -6
LOVELAND       CLEAR     -2  -5  87 N3        30.20S
LONGMONT       FAIR      -4  -9  77 CALM      30.22R
$$

COZ041-046-047-076>085-087-088-211200-
...PIKES PEAK/PALMER DIVIDE AND SOUTHERN FOOTHILLS...

CITY           SKY/WX    TMP DP  RH WIND       PRES   REMARKS
COLO. SPRINGS  CLOUDY     8   5  87 N3        30.16S FOG
A. F. ACADEMY  PTCLDY    -2  -8  78 NW6       30.12S WCI -14
SCHRIEVER AFB  NOT AVBL
CHEYENNE MTN   NOT AVBL
ELLICOTT         N/A    N/A N/A N/A CALM        N/A
FALCON         LGT SNOW   3   0  87 W3        30.12S
FORT CARSON    FLURRIES   9   3  78 NW6       30.16S WCI  -1
LIMON          CLEAR     -4  -7  87 N5        30.18F WCI -15
MONUMENT HILL  CLEAR      3   0  85 S14       30.07F WCI -15
CANON CITY     FLURRIES  16  10  79 CALM      30.19F
WALSENBURG     CLOUDY    12   9  85 CALM      30.15S
TRINIDAD       CLEAR      6   2  83 W7        30.16F WCI  -6
$$

COZ042>045-048>051-090-091-211200-
...NORTHEAST COLORADO...

CITY           SKY/WX    TMP DP  RH WIND       PRES   REMARKS
GREELEY ARPT   CLEAR    -11 -15  82 W5        30.24R WCI -23
AKRON          CLEAR      9   1  70 SW12      30.22S WCI  -6
BURLINGTON     PTCLDY    -4  -8  83 W8        30.27S WCI -19
WRAY           FAIR       3   0  85 W6        30.30F WCI  -8
YUMA           NOT AVBL
STERLING       FAIR      -2  -6  84 NW3       30.26S
HOLYOKE        FAIR       5   0  78 CALM      30.30S
FORT MORGAN    FAIR       1  -4  78 CALM      30.23S
$$

COZ086-089-092>099-211200-
...SOUTHEAST COLORADO...

CITY           SKY/WX    TMP DP  RH WIND       PRES   REMARKS
PUEBLO         CLEAR      9   5  84 E3        30.24S
LA JUNTA       CLEAR      6   1  80 W7        30.28R WCI  -6
LAMAR          CLEAR      0  -5  79 CALM      30.30R
SPRINGFIELD      N/A      2  -3  80 NW6       30.26S WCI  -9
$$





USA.gov is the U.S. government's official web portal to all federal, state and local government web resources and services.